DW1512 Weather Reports


Display with metric or nautical units.
time (UTC)temp
F
wind
direction
speed
MPH
gust
MPH
rain 1hr
in
rain 24hr
in
rain mn
in
humidity
%
barometer
mb
20211128092206 58 231 3.0 8.0 0.00 0.00 0.00 82 996.0
20211128091705 57 203 3.0 8.0 0.00 0.00 0.00 84 996.0
20211128091206 57 223 5.0 8.0 0.00 0.00 0.00 84 996.4
20211128090706 57 181 2.0 8.0 0.00 0.00 0.00 84 996.4
20211128090206 57 222 4.0 8.0 0.00 0.00 0.00 84 996.4
20211128085705 57 236 5.0 8.0 0.00 0.00 0.00 83 996.4
20211128085205 57 229 4.0 8.0 0.00 0.00 0.00 83 996.4
20211128084705 57 216 2.0 7.0 0.00 0.00 0.00 84 996.4
20211128084206 57 185 2.0 9.0 0.00 0.00 0.00 85 996.4
20211128083706 57 187 5.0 9.0 0.00 0.00 0.00 85 996.4
20211128083206 57 226 7.0 9.0 0.00 0.00 0.00 85 996.4
20211128082705 58 224 3.0 3.0 0.00 0.00 0.00 84 996.0
20211128082205 56 250 2.0 5.0 0.00 0.00 0.00 87 995.7
20211128081705 55 210 2.0 8.0 0.00 0.00 0.00 89 995.7
20211128081205 55 226 3.0 8.0 0.00 0.00 0.00 89 996.0
20211128080705 56 239 6.0 8.0 0.00 0.00 0.00 88 996.0
20211128080205 56 161 1.0 7.0 0.00 0.00 0.00 88 995.7
20211128075706 56 210 3.0 7.0 0.00 0.00 0.00 89 995.7
20211128075206 56 234 5.0 7.0 0.00 0.00 0.00 89 995.7
20211128074705 56 261 4.0 7.0 0.00 0.00 0.00 89 995.7
20211128074206 56 228 2.0 5.0 0.00 0.00 0.00 88 995.7
20211128073706 55 246 3.0 7.0 0.00 0.00 0.00 89 995.7
20211128073206 56 210 3.0 7.0 0.00 0.00 0.00 88 995.3
20211128072706 56 215 5.0 7.0 0.00 0.00 0.00 88 995.7
20211128072206 56 197 2.0 7.0 0.00 0.00 0.00 87 995.3
20211128071706 56 212 5.0 7.0 0.00 0.00 0.00 87 995.3
20211128071206 57 263 2.0 3.0 0.00 0.00 0.00 86 995.3
20211128070706 56 84 2.0 3.0 0.00 0.00 0.00 86 995.0
20211128070206 57 218 1.0 2.0 0.00 0.00 0.00 85 994.7
20211128065705 57 295 1.0 2.0 0.00 0.00 0.00 85 994.7
20211128065205 57 297 1.0 2.0 0.00 0.00 0.00 85 994.8
20211128064706 57 277 1.0 2.0 0.00 0.00 0.00 85 995.0
20211128064206 56 244 0.0 1.0 0.00 0.00 0.00 86 994.7
20211128063706 56 142 1.0 1.0 0.00 0.00 0.00 87 994.7
20211128063205 55 130 0.0 2.0 0.00 0.00 0.00 87 994.3
20211128062705 55 334 0.0 2.0 0.00 0.00 0.00 88 994.7
20211128062206 55 356 1.0 2.0 0.00 0.00 0.00 89 995.0
20211128061706 54 324 0.0 1.0 0.00 0.00 0.00 90 995.0
20211128061205 54 333 0.0 1.0 0.00 0.00 0.00 90 994.7
20211128060705 54 20 0.0 1.0 0.00 0.00 0.00 90 994.7
20211128060205 54 22 0.0 1.0 0.00 0.00 0.00 90 994.7
20211128055705 54 287 0.0 1.0 0.00 0.00 0.00 90 994.7
20211128055205 54 287 0.0 1.0 0.00 0.00 0.00 90 995.0
20211128054705 54 285 1.0 1.0 0.00 0.00 0.00 90 994.8
20211128054205 54 278 1.0 1.0 0.00 0.00 0.00 90 994.7
20211128053706 54 120 0.0 2.0 0.00 0.00 0.00 91 994.7
20211128053205 54 299 0.0 2.0 0.00 0.00 0.00 90 994.3
20211128052705 54 122 1.0 2.0 0.00 0.00 0.00 90 994.0
20211128052205 54 115 1.0 7.0 0.00 0.00 0.00 90 994.0
20211128051705 54 84 2.0 7.0 0.00 0.00 0.00 90 994.0
20211128051205 54 103 6.0 7.0 0.00 0.00 0.00 91 993.6
20211128050705 54 154 3.0 6.0 0.00 0.00 0.00 91 993.6
20211128050205 54 98 3.0 6.0 0.00 0.00 0.00 92 993.3
20211128045705 53 129 2.0 3.0 0.00 0.00 0.00 92 993.3
20211128045206 53 93 1.0 2.0 0.00 0.00 0.00 92 993.3
20211128044707 53 110 2.0 2.0 0.00 0.00 0.00 92 993.3
20211128044205 53 90 1.0 2.0 0.00 0.00 0.00 92 993.3
20211128043705 53 71 1.0 2.0 0.00 0.00 0.00 92 993.3
20211128043206 53 80 0.0 1.0 0.00 0.00 0.00 92 993.3
20211128042705 53 74 0.0 1.0 0.00 0.00 0.00 92 993.3
20211128042206 53 109 0.0 2.0 0.00 0.00 0.00 92 993.6
20211128041706 53 86 1.0 5.0 0.00 0.00 0.00 92 993.6
20211128041205 53 81 1.0 5.0 0.00 0.00 0.00 93 993.6
20211128040706 53 81 3.0 5.0 0.00 0.00 0.00 93 993.6
20211128040205 53 78 3.0 3.0 0.00 0.00 0.00 92 993.6
20211128035705 53 69 1.0 3.0 0.00 0.00 0.00 92 993.6
20211128035205 53 63 2.0 3.0 0.00 0.00 0.00 92 993.6
20211128034706 53 58 1.0 2.0 0.00 0.00 0.00 92 993.6
20211128034206 53 82 1.0 2.0 0.00 0.00 0.00 92 993.6
20211128033706 53 93 0.0 2.0 0.00 0.00 0.00 91 993.6
20211128033205 53 252 0.0 1.0 0.00 0.00 0.00 91 993.8
20211128032705 53 252 0.0 0.0 0.00 0.00 0.00 91 994.0
20211128032205 54 250 0.0 0.0 0.00 0.00 0.00 90 994.0
20211128031707 54 210 0.0 0.0 0.00 0.00 0.00 90 994.0
20211128031207 54 211 0.0 0.0 0.00 0.00 0.00 90 994.0
20211128030706 54 211 0.0 3.0 0.00 0.00 0.00 89 994.0
20211128030206 54 211 0.0 3.0 0.00 0.00 0.00 89 994.0
20211128025705 54 146 2.0 3.0 0.00 0.00 0.00 89 994.0
20211128025205 54 106 2.0 3.0 0.00 0.00 0.00 89 994.0
20211128024705 55 148 3.0 3.0 0.00 0.00 0.00 89 994.0
20211128024205 55 162 0.0 5.0 0.00 0.00 0.00 89 993.6
20211128023706 55 143 2.0 5.0 0.00 0.00 0.00 89 993.6
20211128023206 55 171 3.0 7.0 0.00 0.00 0.00 89 993.6
20211128022705 55 143 2.0 8.0 0.00 0.00 0.00 89 993.9
20211128022205 55 182 5.0 8.0 0.00 0.00 0.00 89 994.0
20211128021705 55 203 5.0 8.0 0.00 0.00 0.00 89 994.0
20211128021205 55 127 5.0 8.0 0.00 0.00 0.00 89 994.0
20211128020705 55 279 3.0 7.0 0.00 0.00 0.00 89 994.0
20211128020206 55 109 2.0 7.0 0.00 0.00 0.00 89 994.3
20211128015705 55 123 1.0 6.0 0.00 0.00 0.00 89 994.3
20211128015205 55 91 3.0 6.0 0.00 0.00 0.00 89 994.3
20211128014704 55 187 3.0 6.0 0.00 0.00 0.00 89 995.0
20211128014205 55 81 3.0 6.0 0.00 0.00 0.00 89 995.0
20211128013704 55 127 3.0 6.0 0.00 0.00 0.00 89 995.0
20211128013205 55 210 5.0 6.0 0.00 0.00 0.00 89 995.0
20211128012705 55 199 5.0 12.0 0.00 0.00 0.00 89 995.0
20211128012205 55 198 3.0 12.0 0.00 0.00 0.00 89 995.3
20211128011705 55 214 6.0 12.0 0.00 0.00 0.00 89 995.5
20211128011205 55 225 5.0 12.0 0.00 0.00 0.00 89 995.7
20211128010705 55 42 3.0 6.0 0.00 0.00 0.00 88 995.3
20211128010205 55 258 3.0 7.0 0.00 0.00 0.00 87 995.3
20211128005705 55 112 5.0 9.0 0.00 0.00 0.00 86 995.3
20211128005205 56 209 6.0 9.0 0.00 0.00 0.00 85 995.7
20211128004705 56 157 6.0 12.0 0.00 0.00 0.00 85 995.7
20211128004205 56 149 3.0 12.0 0.00 0.00 0.00 85 995.7
20211128003705 56 122 7.0 12.0 0.00 0.00 0.00 85 995.7
20211128003206 56 263 2.0 8.0 0.00 0.00 0.00 87 995.3
20211128002705 56 121 6.0 8.0 0.00 0.00 0.00 87 995.7
20211128002205 57 223 5.0 8.0 0.00 0.00 0.00 88 995.7
20211128001705 57 243 6.0 8.0 0.00 0.00 0.00 88 995.7
20211128001206 57 205 4.0 8.0 0.00 0.00 0.00 89 995.7
20211128000705 57 120 3.0 9.0 0.00 0.00 0.00 89 995.7
20211128000205 57 203 5.0 9.0 0.00 0.00 0.00 89 995.7
20211127235704 57 114 5.0 9.0 0.00 0.00 0.00 89 995.7
20211127235205 57 70 3.0 7.0 0.00 0.00 0.00 90 995.3
20211127234705 57 144 1.0 7.0 0.00 0.00 0.00 89 995.3
20211127234205 57 104 5.0 10.0 0.00 0.00 0.00 88 995.3
20211127233705 57 58 3.0 10.0 0.00 0.00 0.00 88 995.0
20211127233205 57 225 7.0 10.0 0.00 0.00 0.00 88 995.3
20211127232705 57 99 5.0 8.0 0.00 0.00 0.00 88 995.3
20211127232205 57 146 3.0 5.0 0.00 0.00 0.00 88 995.3
20211127231705 57 228 1.0 3.0 0.00 0.00 0.00 88 995.0
20211127231205 57 133 2.0 5.0 0.00 0.00 0.00 88 995.3
20211127230705 56 152 2.0 5.0 0.00 0.00 0.00 89 995.3
20211127230205 56 153 3.0 5.0 0.00 0.00 0.00 90 995.4
20211127225706 56 134 3.0 9.0 0.00 0.00 0.00 90 995.7
20211127225205 57 206 3.0 9.0 0.00 0.00 0.00 90 995.3
20211127224705 57 133 3.0 9.0 0.00 0.00 0.00 90 995.7
20211127224205 57 106 2.0 7.0 0.00 0.00 0.00 90 995.7
20211127223705 57 142 5.0 7.0 0.00 0.00 0.00 90 995.7
20211127223205 57 151 3.0 6.0 0.00 0.00 0.00 90 995.7
20211127222705 57 198 2.0 7.0 0.00 0.00 0.00 88 995.7
20211127222204 57 167 3.0 7.0 0.00 0.00 0.00 89 995.7
20211127221705 57 224 3.0 7.0 0.00 0.00 0.00 89 995.7
20211127221204 57 134 3.0 8.0 0.00 0.00 0.00 89 995.7
20211127220704 57 239 1.0 8.0 0.00 0.00 0.00 89 996.0
20211127220205 57 216 3.0 8.0 0.00 0.00 0.00 89 995.8
20211127215705 57 202 3.0 8.0 0.00 0.00 0.00 89 995.8
20211127215205 57 157 3.0 6.0 0.00 0.00 0.00 88 996.0
20211127214705 57 241 4.0 6.0 0.00 0.00 0.00 88 996.0
20211127214206 56 122 2.0 5.0 0.00 0.00 0.00 87 996.0
20211127213704 56 122 3.0 5.0 0.00 0.00 0.00 87 995.7
20211127213204 56 268 1.0 3.0 0.00 0.00 0.00 88 996.0
20211127212705 55 109 2.0 3.0 0.00 0.00 0.00 90 996.0
20211127212205 54 116 1.0 3.0 0.00 0.00 0.00 92 996.0
20211127211705 54 116 0.0 3.0 0.00 0.00 0.00 92 996.0
20211127211205 53 100 1.0 3.0 0.00 0.00 0.00 93 996.4
20211127210704 53 110 0.0 1.0 0.00 0.00 0.00 93 996.4
20211127210205 52 124 1.0 1.0 0.00 0.00 0.00 93 996.4
20211127205705 52 119 0.0 1.0 0.00 0.00 0.00 92 996.4
20211127205205 52 119 1.0 1.0 0.00 0.00 0.00 92 996.5
20211127204705 52 119 1.0 1.0 0.00 0.00 0.00 92 996.6
20211127204204 52 112 1.0 1.0 0.00 0.00 0.00 91 996.4
20211127203705 52 145 0.0 3.0 0.00 0.00 0.00 90 996.4
20211127203205 53 112 1.0 3.0 0.00 0.00 0.00 90 996.4
20211127202705 53 116 3.0 3.0 0.00 0.00 0.00 89 996.7
20211127202204 53 120 1.0 2.0 0.00 0.00 0.00 87 996.7
20211127201705 54 156 1.0 2.0 0.00 0.00 0.00 86 996.7
20211127201205 55 141 0.0 2.0 0.00 0.00 0.00 84 996.7
20211127200704 55 149 1.0 2.0 0.00 0.00 0.00 84 997.0
20211127200204 54 152 0.0 5.0 0.00 0.00 0.00 86 996.7
20211127195705 54 162 1.0 5.0 0.00 0.00 0.00 87 997.0
20211127195205 54 161 3.0 5.0 0.00 0.00 0.00 87 997.0
20211127194705 54 155 2.0 5.0 0.00 0.00 0.00 86 996.8
20211127194205 54 143 1.0 2.0 0.00 0.00 0.00 85 996.9
20211127193705 55 124 1.0 3.0 0.00 0.00 0.00 84 997.4
20211127193204 55 135 1.0 3.0 0.00 0.00 0.00 83 997.0
20211127192705 55 212 2.0 3.0 0.00 0.00 0.00 83 997.0
20211127192205 55 134 1.0 2.0 0.00 0.00 0.00 83 997.0
20211127191705 55 129 1.0 2.0 0.00 0.00 0.00 83 997.0
20211127191205 55 115 2.0 5.0 0.00 0.00 0.00 82 997.4
20211127190705 56 136 1.0 5.0 0.00 0.00 0.00 81 997.4
20211127190205 56 161 2.0 6.0 0.00 0.00 0.00 80 997.4
20211127185705 56 157 2.0 6.0 0.00 0.00 0.00 80 997.4
20211127185205 56 156 3.0 6.0 0.00 0.00 0.00 81 997.4
20211127184705 56 168 3.0 3.0 0.00 0.00 0.00 81 997.4
20211127184205 56 155 1.0 3.0 0.00 0.00 0.00 81 997.4
20211127183704 56 121 2.0 5.0 0.00 0.00 0.00 81 997.4
20211127183205 56 150 2.0 7.0 0.00 0.00 0.00 82 997.4
20211127182705 56 154 3.0 7.0 0.00 0.00 0.00 83 997.7
20211127182204 56 145 3.0 7.0 0.00 0.00 0.00 83 997.4
20211127181705 56 225 3.0 6.0 0.00 0.00 0.00 85 997.4
20211127181206 56 258 1.0 6.0 0.00 0.00 0.00 86 997.7
20211127180705 56 130 3.0 6.0 0.00 0.00 0.00 87 997.7
20211127180204 56 188 3.0 5.0 0.00 0.00 0.00 87 997.7
20211127175704 56 271 2.0 5.0 0.00 0.00 0.00 87 997.7
20211127175205 56 160 3.0 5.0 0.00 0.00 0.00 87 997.7
20211127174704 56 119 2.0 5.0 0.00 0.00 0.00 87 997.4
20211127174205 56 158 3.0 5.0 0.00 0.00 0.00 86 997.7
20211127173705 56 167 3.0 5.0 0.00 0.00 0.00 86 997.2
20211127173205 56 162 2.0 5.0 0.00 0.00 0.00 86 997.2
20211127172705 56 138 2.0 12.0 0.00 0.01 0.00 86 997.4
20211127172204 56 134 5.0 12.0 0.00 0.01 0.00 86 997.4
20211127171704 56 271 6.0 12.0 0.00 0.01 0.00 85 997.7
20211127171205 56 178 3.0 9.0 0.00 0.01 0.00 86 997.7
20211127170705 56 207 6.0 9.0 0.00 0.01 0.00 86 997.7
20211127170205 57 169 5.0 8.0 0.00 0.01 0.00 86 997.4
20211127165704 56 2 0.0 8.0 0.00 0.01 0.00 87 997.4
20211127165204 56 174 6.0 8.0 0.00 0.02 0.00 87 997.4
20211127164705 56 199 3.0 8.0 0.00 0.03 0.00 87 997.4
20211127164205 56 120 3.0 8.0 0.00 0.05 0.00 87 997.4
20211127163706 57 223 6.0 8.0 0.00 0.06 0.00 86 997.4
20211127163205 57 163 4.0 8.0 0.00 0.08 0.00 85 997.7
20211127162704 57 155 3.0 6.0 0.00 0.08 0.00 84 997.7
20211127162205 57 160 3.0 6.0 0.00 0.09 0.00 84 997.7
20211127161704 57 195 4.0 7.0 0.00 0.09 0.00 84 997.4
20211127161204 57 161 5.0 7.0 0.00 0.10 0.00 84 997.4
20211127160704 57 237 5.0 7.0 0.00 0.11 0.00 84 997.4
20211127160205 57 123 2.0 6.0 0.00 0.11 0.00 84 997.7
20211127155705 57 279 1.0 6.0 0.00 0.11 0.00 83 997.7
20211127155206 57 199 5.0 7.0 0.00 0.12 0.00 83 997.4
20211127154705 57 136 3.0 7.0 0.00 0.12 0.00 83 997.7
20211127154205 58 262 3.0 7.0 0.00 0.12 0.00 82 997.4
20211127153705 58 135 5.0 7.0 0.00 0.12 0.00 83 997.4
20211127153205 58 199 5.0 7.0 0.00 0.12 0.00 82 997.4
20211127152705 58 233 4.0 6.0 0.00 0.12 0.00 82 997.4
20211127152204 58 9 3.0 6.0 0.00 0.12 0.00 82 997.4
20211127151705 58 124 3.0 5.0 0.00 0.19 0.00 82 997.4
20211127151205 58 80 1.0 5.0 0.00 0.19 0.00 81 997.4
20211127150705 58 214 3.0 5.0 0.00 0.19 0.00 81 997.4
20211127150205 58 132 3.0 5.0 0.00 0.19 0.00 81 997.4
20211127145704 58 122 1.0 5.0 0.00 0.19 0.00 80 997.4
20211127145206 58 200 2.0 10.0 0.00 0.19 0.00 79 997.4
20211127144704 58 134 3.0 10.0 0.00 0.19 0.00 79 997.4
20211127144205 58 119 7.0 10.0 0.00 0.19 0.00 79 997.4
20211127143705 58 83 2.0 10.0 0.00 0.19 0.00 79 997.4
20211127143205 58 78 1.0 5.0 0.00 0.19 0.00 78 997.2
20211127142704 58 75 2.0 5.0 0.00 0.19 0.00 78 997.1
20211127142205 58 77 3.0 7.0 0.00 0.19 0.00 78 997.4
20211127141705 59 92 3.0 7.0 0.00 0.19 0.00 77 997.0
20211127141205 59 113 5.0 7.0 0.00 0.19 0.00 77 997.0
20211127140704 59 131 3.0 6.0 0.00 0.19 0.00 77 997.0
20211127140205 59 106 2.0 6.0 0.00 0.19 0.00 75 997.0
20211127135705 59 111 3.0 6.0 0.00 0.19 0.00 73 997.0
20211127135204 59 140 3.0 6.0 0.00 0.19 0.00 72 997.4
20211127134704 59 109 1.0 5.0 0.00 0.19 0.00 72 997.4
20211127134204 59 135 1.0 5.0 0.00 0.19 0.00 72 997.0
20211127133705 60 105 3.0 5.0 0.00 0.19 0.00 71 997.0
20211127133205 60 185 2.0 6.0 0.00 0.19 0.00 70 997.0
20211127132704 60 199 3.0 6.0 0.00 0.19 0.00 70 997.3
20211127132205 60 220 3.0 12.0 0.00 0.19 0.00 70 997.3
20211127131705 60 278 5.0 12.0 0.00 0.19 0.00 70 997.0
20211127131205 60 162 7.0 12.0 0.00 0.19 0.00 70 997.0
20211127130705 60 180 5.0 6.0 0.00 0.19 0.00 72 996.7
20211127130204 60 131 3.0 5.0 0.00 0.19 0.00 73 996.7
20211127125705 60 124 2.0 7.0 0.00 0.19 0.00 74 996.7
20211127125204 60 86 1.0 7.0 0.00 0.19 0.00 76 996.7
20211127124704 60 88 5.0 7.0 0.00 0.19 0.00 77 997.0
20211127124204 60 95 2.0 3.0 0.00 0.19 0.00 78 997.0
20211127123705 60 138 3.0 6.0 0.00 0.19 0.00 77 997.0
20211127123204 60 128 2.0 6.0 0.00 0.19 0.00 77 997.0
20211127122704 60 144 5.0 6.0 0.00 0.19 0.00 76 997.0
20211127122204 60 143 3.0 6.0 0.00 0.19 0.00 77 997.0
20211127121704 60 140 3.0 6.0 0.00 0.19 0.00 77 997.2
20211127121205 60 135 3.0 6.0 0.00 0.19 0.00 77 997.4
20211127120705 60 139 3.0 6.0 0.00 0.19 0.00 77 997.4
20211127120204 60 91 1.0 5.0 0.00 0.19 0.00 78 997.4
20211127115705 60 118 3.0 8.0 0.00 0.19 0.00 78 997.0
20211127115205 60 173 2.0 8.0 0.00 0.19 0.00 76 997.4
20211127114705 61 120 6.0 8.0 0.00 0.19 0.00 76 997.4
20211127114205 60 117 1.0 3.0 0.00 0.19 0.00 77 997.4
20211127113704 60 115 1.0 9.0 0.00 0.19 0.00 78 997.4
20211127113205 60 95 3.0 9.0 0.00 0.19 0.00 79 997.4
20211127112704 60 90 5.0 9.0 0.00 0.19 0.00 78 997.4
20211127112204 60 102 3.0 8.0 0.00 0.19 0.00 79 997.4
20211127111705 60 128 6.0 8.0 0.00 0.19 0.00 79 997.4
20211127111204 60 130 3.0 8.0 0.00 0.19 0.00 78 997.6
20211127110704 60 129 2.0 9.0 0.00 0.19 0.00 78 997.7
20211127110204 60 66 3.0 9.0 0.00 0.19 0.00 77 997.7
20211127105704 60 159 7.0 10.0 0.00 0.19 0.00 74 997.4
20211127105205 60 189 1.0 10.0 0.00 0.19 0.00 75 997.4
20211127104704 60 217 7.0 10.0 0.00 0.19 0.00 74 997.4
20211127104204 60 162 5.0 6.0 0.00 0.19 0.00 75 997.4
20211127103704 60 80 2.0 5.0 0.00 0.19 0.00 78 997.4
20211127103204 60 122 3.0 7.0 0.00 0.19 0.00 78 997.4
20211127102704 59 63 2.0 7.0 0.00 0.19 0.00 77 997.4
20211127102204 59 136 5.0 7.0 0.00 0.19 0.00 74 997.7
20211127101704 59 144 5.0 6.0 0.00 0.19 0.00 74 997.4
20211127101204 59 219 3.0 6.0 0.00 0.19 0.00 75 997.7
20211127100704 59 226 2.0 6.0 0.00 0.19 0.00 76 997.7
20211127100204 59 39 3.0 10.0 0.00 0.19 0.00 76 997.6
20211127095704 59 50 5.0 10.0 0.00 0.19 0.00 76 997.4
20211127095204 59 118 5.0 10.0 0.00 0.19 0.00 76 997.7
20211127094704 58 166 1.0 6.0 0.00 0.19 0.00 78 997.7
20211127094204 58 67 2.0 6.0 0.00 0.19 0.00 78 998.1
20211127093704 59 128 3.0 6.0 0.00 0.19 0.00 78 998.1
20211127093204 59 74 1.0 6.0 0.00 0.19 0.00 76 998.1
20211127092704 60 139 3.0 6.0 0.00 0.19 0.00 72 998.1